This is the latest recevied weather packets stored in our database for station/object DH9SB-6. If no packets are shown the sender has not sent any weather packets the latest 10 day(s).
| Time | Temp. | Humidity | Pressure | Rain* | Wind** | Luminosity | Snow |
|---|---|---|---|---|---|---|---|
| 1788084777 | 25° C | 50% | - | 0 mm | - | - | - |
| 1788084153 | 25° C | 51% | - | 0 mm | - | - | - |
| 1788083579 | 24.44° C | 52% | - | 0 mm | - | - | - |
| 1788082953 | 24.44° C | 51% | - | 0 mm | - | - | - |
| 1788082424 | 24.44° C | 51% | - | 0 mm | - | - | - |
| 1788081756 | 24.44° C | 52% | - | 0 mm | - | - | - |
| 1788081225 | 23.89° C | 53% | - | 0 mm | - | - | - |
| 1788080553 | 22.78° C | 56% | - | 0 mm | - | - | - |
| 1788079980 | 23.33° C | 54% | - | 0 mm | - | - | - |
| 1788079401 | 24.44° C | 54% | - | 0 mm | - | - | - |
| 1788078776 | 23.89° C | 56% | - | 0 mm | - | - | - |
| 1788078157 | 23.33° C | 58% | - | 0 mm | - | - | - |
| 1788077577 | 22.78° C | 59% | - | 0 mm | - | - | - |
| 1788076954 | 22.78° C | 58% | - | 0 mm | - | - | - |
| 1788076376 | 22.78° C | 61% | - | 0 mm | - | - | - |
| 1788075801 | 22.78° C | 58% | - | 0 mm | - | - | - |
| 1788075177 | 23.33° C | 56% | - | 0 mm | - | - | - |
| 1788074553 | 23.33° C | 56% | - | 0 mm | - | - | - |
| 1788073976 | 23.89° C | 54% | - | 0 mm | - | - | - |
| 1788073353 | 23.89° C | 54% | - | 0 mm | - | - | - |
| 1788072777 | 24.44° C | 55% | - | 0 mm | - | - | - |
| 1788072154 | 23.33° C | 59% | - | 0 mm | - | - | - |
| 1788071579 | 21.67° C | 66% | - | 0 mm | - | - | - |
| 1788070953 | 20.56° C | 70% | - | 0 mm | - | - | - |
| 1788070377 | 20° C | 71% | - | 0 mm | - | - | - |
* Rain latest hour (hover to see other rain measurements)
** Current wind speed in m/s (hover to see current wind gust speed)